timestamp,wind_dir_avg,wind_spd_avg,wind_spd_max_dir,wind_spd_gust,battery_voltage,lat,long
2024-01-25 00:04:00+00:00,278.0,7.9,279.0,10.02,12.17,47.59359,-54.27349
2024-01-25 00:14:00+00:00,288.0,8.57,285.0,10.53,12.17,47.59359,-54.27349
2024-01-25 00:24:00+00:00,283.0,7.77,299.0,9.09,12.17,47.59359,-54.27349
2024-01-25 00:34:00+00:00,274.0,7.38,279.0,10.2,12.17,47.59359,-54.27349
2024-01-25 00:44:00+00:00,270.0,7.66,262.0,8.52,12.17,47.59359,-54.27349
2024-01-25 00:54:00+00:00,270.0,7.42,267.0,9.06,12.17,47.59359,-54.27349
2024-01-25 01:04:00+00:00,276.0,6.64,272.0,9.22,12.17,47.59359,-54.27349
2024-01-25 01:14:00+00:00,281.0,8.09,286.0,8.82,12.17,47.59359,-54.27349
2024-01-25 01:24:00+00:00,279.0,7.56,283.0,8.8,12.17,47.59359,-54.27349
2024-01-25 01:34:00+00:00,280.0,7.26,290.0,9.74,12.17,47.59359,-54.27349
2024-01-25 01:44:00+00:00,279.0,6.74,280.0,9.72,12.17,47.59359,-54.27349
2024-01-25 01:54:00+00:00,270.0,5.08,272.0,8.06,12.17,47.59359,-54.27349
2024-01-25 02:04:00+00:00,267.0,5.19,271.0,6.11,12.17,47.59359,-54.27349
2024-01-25 02:14:00+00:00,255.0,6.24,248.0,7.11,12.09,47.59359,-54.27349
2024-01-25 02:24:00+00:00,263.0,6.08,265.0,6.93,12.09,47.59359,-54.27349
2024-01-25 02:34:00+00:00,258.0,5.53,263.0,6.38,12.09,47.59359,-54.27349
2024-01-25 02:44:00+00:00,257.0,6.66,259.0,7.17,12.09,47.59359,-54.27349
2024-01-25 02:54:00+00:00,255.0,6.23,250.0,6.77,12.09,47.59359,-54.27349
2024-01-25 03:04:00+00:00,251.0,7.82,240.0,8.99,12.09,47.59359,-54.27349
2024-01-25 03:14:00+00:00,258.0,7.66,252.0,8.93,12.09,47.59359,-54.27349
2024-01-25 03:24:00+00:00,238.0,7.83,242.0,8.62,12.09,47.59359,-54.27349
2024-01-25 03:34:00+00:00,249.0,8.59,255.0,9.78,12.09,47.59359,-54.27349
2024-01-25 03:44:00+00:00,243.0,8.2,235.0,9.25,12.09,47.59359,-54.27349
2024-01-25 03:54:00+00:00,235.0,8.45,235.0,9.57,12.09,47.59359,-54.27349
2024-01-25 04:04:00+00:00,240.0,10.89,248.0,13.95,12.09,47.59359,-54.27349
2024-01-25 04:14:00+00:00,243.0,12.78,242.0,14.99,12.09,47.59359,-54.27349
2024-01-25 04:24:00+00:00,243.0,13.46,242.0,15.21,12.09,47.59359,-54.27349
2024-01-25 04:34:00+00:00,243.0,12.96,242.0,14.35,12.09,47.59359,-54.27349
2024-01-25 04:44:00+00:00,247.0,12.39,243.0,14.64,12.09,47.59359,-54.27349
2024-01-25 04:54:00+00:00,246.0,12.43,236.0,14.17,12.09,47.59359,-54.27349
2024-01-25 05:04:00+00:00,246.0,12.52,241.0,14.09,12.09,47.59359,-54.27349
2024-01-25 05:14:00+00:00,241.0,13.39,241.0,15.31,12.01,47.59359,-54.27349
2024-01-25 05:24:00+00:00,241.0,12.67,235.0,14.4,12.01,47.59359,-54.27349
2024-01-25 05:34:00+00:00,242.0,12.5,244.0,16.73,12.01,47.59359,-54.27349
2024-01-25 05:44:00+00:00,240.0,13.24,247.0,17.1,12.01,47.59359,-54.27349
2024-01-25 05:54:00+00:00,236.0,13.73,238.0,15.96,12.01,47.59359,-54.27349
2024-01-25 06:04:00+00:00,235.0,13.68,232.0,15.18,12.01,47.59359,-54.27349
2024-01-25 06:14:00+00:00,232.0,14.31,226.0,15.93,12.01,47.59359,-54.27349
2024-01-25 06:24:00+00:00,232.0,13.56,228.0,15.8,12.01,47.59359,-54.27349
2024-01-25 06:34:00+00:00,232.0,14.14,232.0,15.24,12.01,47.59359,-54.27349
2024-01-25 06:44:00+00:00,230.0,14.75,230.0,16.16,12.01,47.59359,-54.27349
2024-01-25 06:54:00+00:00,230.0,14.15,224.0,16.8,12.01,47.59359,-54.27349
2024-01-25 07:04:00+00:00,231.0,13.63,222.0,16.93,12.01,47.59359,-54.27349
2024-01-25 07:14:00+00:00,231.0,14.71,237.0,17.05,12.01,47.59359,-54.27349
2024-01-25 07:24:00+00:00,234.0,16.2,246.0,22.91,12.01,47.59359,-54.27349
2024-01-25 07:34:00+00:00,236.0,14.73,242.0,18.56,12.01,47.59359,-54.27349
2024-01-25 07:44:00+00:00,234.0,15.45,242.0,20.74,12.01,47.59359,-54.27349
2024-01-25 07:54:00+00:00,237.0,15.94,244.0,20.66,12.01,47.59359,-54.27349
2024-01-25 08:04:00+00:00,235.0,14.69,240.0,18.37,12.01,47.59359,-54.27349
2024-01-25 08:14:00+00:00,231.0,14.74,237.0,17.62,11.93,47.59359,-54.27349
2024-01-25 08:24:00+00:00,234.0,13.9,231.0,16.02,11.93,47.59359,-54.27349
2024-01-25 08:34:00+00:00,230.0,15.53,233.0,18.17,11.93,47.59359,-54.27349
2024-01-25 08:44:00+00:00,231.0,16.88,238.0,22.94,11.93,47.59359,-54.27349
2024-01-25 08:54:00+00:00,227.0,16.18,228.0,20.12,11.93,47.59359,-54.27349
2024-01-25 09:04:00+00:00,230.0,13.55,226.0,16.23,11.93,47.59359,-54.27349
2024-01-25 09:14:00+00:00,229.0,14.12,227.0,16.92,11.93,47.59359,-54.27349
2024-01-25 09:24:00+00:00,228.0,14.81,231.0,18.73,11.93,47.59359,-54.27349
2024-01-25 09:34:00+00:00,228.0,14.85,222.0,17.26,11.93,47.59359,-54.27349
2024-01-25 09:44:00+00:00,228.0,15.24,227.0,17.36,11.93,47.59359,-54.27349
2024-01-25 09:54:00+00:00,231.0,13.36,241.0,16.0,11.93,47.59359,-54.27349
2024-01-25 10:04:00+00:00,232.0,14.58,229.0,17.11,11.93,47.59359,-54.27349
2024-01-25 12:14:00+00:00,234.0,13.93,237.0,16.78,11.93,47.59359,-54.27349
2024-01-25 12:24:00+00:00,248.0,13.96,238.0,15.94,11.93,47.59359,-54.27349
2024-01-25 12:34:00+00:00,240.0,12.92,238.0,15.75,11.93,47.59359,-54.27349
2024-01-25 12:44:00+00:00,236.0,12.45,231.0,15.11,11.93,47.59359,-54.27349
2024-01-25 12:54:00+00:00,230.0,12.6,229.0,15.11,11.93,47.59359,-54.27349
2024-01-25 13:04:00+00:00,234.0,15.89,239.0,18.74,11.93,47.59359,-54.27349
2024-01-25 13:14:00+00:00,232.0,13.73,239.0,16.73,11.93,47.59359,-54.27349
2024-01-25 13:24:00+00:00,227.0,13.55,226.0,15.73,11.93,47.59359,-54.27349
2024-01-25 13:34:00+00:00,224.0,14.92,222.0,17.99,11.93,47.59359,-54.27349
2024-01-25 13:44:00+00:00,226.0,16.03,235.0,19.75,11.93,47.59359,-54.27349
2024-01-25 13:54:00+00:00,231.0,15.58,232.0,19.02,11.93,47.59359,-54.27349
2024-01-25 14:04:00+00:00,229.0,16.28,233.0,18.96,11.93,47.59359,-54.27349
2024-01-25 14:14:00+00:00,231.0,16.41,231.0,19.37,12.09,47.59359,-54.27349
2024-01-25 14:24:00+00:00,230.0,15.0,224.0,19.1,12.09,47.59359,-54.27349
2024-01-25 14:34:00+00:00,229.0,13.5,232.0,15.46,12.09,47.59359,-54.27349
2024-01-25 14:44:00+00:00,229.0,14.8,233.0,17.52,12.09,47.59359,-54.27349
2024-01-25 14:54:00+00:00,228.0,14.24,232.0,17.57,12.09,47.59359,-54.27349
2024-01-25 15:04:00+00:00,229.0,13.42,235.0,16.55,12.09,47.59359,-54.27349
2024-01-25 15:14:00+00:00,234.0,14.02,242.0,17.41,12.09,47.59359,-54.27349
2024-01-25 15:24:00+00:00,233.0,12.94,237.0,16.03,12.09,47.59359,-54.27349
2024-01-25 15:34:00+00:00,231.0,11.19,233.0,13.63,12.09,47.59359,-54.27349
2024-01-25 15:44:00+00:00,231.0,11.78,233.0,13.53,12.09,47.59359,-54.27349
2024-01-25 15:54:00+00:00,235.0,12.71,239.0,14.67,12.09,47.59359,-54.27349
2024-01-25 16:04:00+00:00,227.0,12.15,226.0,14.12,12.09,47.59359,-54.27349
2024-01-25 16:14:00+00:00,229.0,11.7,233.0,13.88,12.01,47.59359,-54.27349
2024-01-25 16:24:00+00:00,234.0,10.93,231.0,12.94,12.01,47.59359,-54.27349
2024-01-25 16:34:00+00:00,233.0,13.11,240.0,16.2,12.01,47.59359,-54.27349
2024-01-25 16:44:00+00:00,230.0,12.28,228.0,14.26,12.01,47.59359,-54.27349
2024-01-25 16:54:00+00:00,238.0,12.99,233.0,14.53,12.01,47.59359,-54.27349
2024-01-25 17:04:00+00:00,238.0,10.1,243.0,11.81,12.01,47.59359,-54.27349
2024-01-25 17:14:00+00:00,235.0,11.88,241.0,13.76,12.09,47.59359,-54.27349
2024-01-25 17:24:00+00:00,236.0,10.92,238.0,12.3,12.09,47.59359,-54.27349
2024-01-25 17:34:00+00:00,229.0,11.02,217.0,13.58,12.09,47.59359,-54.27349
2024-01-25 17:44:00+00:00,232.0,11.27,233.0,14.06,12.09,47.59359,-54.27349
2024-01-25 17:54:00+00:00,230.0,9.86,233.0,11.71,12.09,47.59359,-54.27349
2024-01-25 18:04:00+00:00,224.0,9.77,220.0,11.95,12.09,47.59359,-54.27349
2024-01-25 18:14:00+00:00,227.0,9.43,229.0,11.94,12.17,47.59359,-54.27349
2024-01-25 18:24:00+00:00,227.0,9.52,221.0,11.17,12.17,47.59359,-54.27349
2024-01-25 18:34:00+00:00,231.0,8.78,238.0,10.57,12.17,47.59359,-54.27349
2024-01-25 18:44:00+00:00,232.0,8.84,237.0,10.12,12.17,47.59359,-54.27349
2024-01-25 18:54:00+00:00,233.0,8.43,236.0,9.68,12.17,47.59359,-54.27349
2024-01-25 19:04:00+00:00,233.0,8.94,238.0,10.93,12.17,47.59359,-54.27349
2024-01-25 19:14:00+00:00,230.0,7.44,236.0,9.48,12.09,47.59359,-54.27349
2024-01-25 19:24:00+00:00,235.0,7.84,240.0,10.14,12.09,47.59359,-54.27349
2024-01-25 19:34:00+00:00,232.0,8.14,238.0,10.69,12.09,47.59359,-54.27349
2024-01-25 19:44:00+00:00,235.0,6.55,243.0,10.24,12.09,47.59359,-54.27349
2024-01-25 19:54:00+00:00,238.0,7.72,242.0,10.41,12.09,47.59359,-54.27349
2024-01-25 20:04:00+00:00,245.0,9.38,247.0,10.88,12.09,47.59359,-54.27349
